Back to catalog

FENGYUN 1C DEB

AliveSSO
NORAD 31766·DEBRIS·🇨🇳 China

Launched May 10, 1999 from Taiyuan Satellite Launch Center

Loading…

Next Passes (next 24 hours)

TLE

FreshSource: Space-Track

Epoch: Sep 14, 2026, 05:11 UTC

1 31766U 99025CFR 26257.21609234  .00000195  00000-0  14356-3 0  9994
2 31766  98.8296 252.6780 0073290 238.2762 121.1248 14.05406778679551

Track FENGYUN 1C DEB in real time with AllMySat

Download on the App Store